Location: Launois
(49.6535°N, 4.5395°E)
Time: 06:53:27
(UTC+00:00)

USA 267 - Pass Details

Date: 23 May 2024
Orbit: 1100 x 1107 km, 123.0° (Epoch: 21 May)

Event Time Altitude Azimuth Distance (km) Brightness Sun altitude
Rises 01:58:49 0° 65° (ENE) 3,921 7.2 -13.1°
Reaches altitude 10° 02:01:21 10° 61° (ENE) 2,962 6.6 -12.9°
Maximum altitude 02:07:38 52° 348° (NNW) 1,349 4.0 -12.3°
Drops below altitude 10° 02:13:54 10° 274° (W) 2,959 5.2 -11.7°
Sets 02:16:26 0° 270° (W) 3,917 5.8 -11.5°
